| time (UTC) | temp F | wind direction | speed MPH | gust MPH | rain 1hr in | rain 24hr in | rain mn in | humidity % | barometer mb |
| 20260503004527 | 52 | 235 | 0.0 | 0.0 | 0.00 | 0.00 | 0.00 | 53 | 1017.3 |
| 20260503003027 | 53 | 302 | 0.0 | 2.0 | 0.00 | 0.00 | 0.00 | 52 | 1017.2 |
| 20260503001526 | 53 | 303 | 0.0 | 2.0 | 0.00 | 0.00 | 0.00 | 49 | 1017.3 |
| 20260503000024 | 54 | 302 | 0.0 | 3.0 | 0.00 | 0.00 | 0.00 | 49 | 1017.5 |
| 20260502234523 | 54 | 302 | 0.0 | 4.0 | 0.00 | 0.00 | 0.00 | 46 | 1017.5 |
| 20260502233022 | 55 | 303 | 2.0 | 6.0 | 0.00 | 0.00 | 0.00 | 44 | 1017.6 |
| 20260502231522 | 55 | 274 | 1.0 | 4.0 | 0.00 | 0.00 | 0.00 | 46 | 1017.6 |
| 20260502230025 | 56 | 264 | 2.0 | 7.0 | 0.00 | 0.00 | 0.00 | 44 | 1017.7 |
| 20260502224519 | 56 | 319 | 3.0 | 5.0 | 0.00 | 0.00 | 0.00 | 43 | 1017.8 |
| 20260502223019 | 55 | 334 | 1.0 | 8.0 | 0.00 | 0.00 | 0.00 | 46 | 1017.8 |
| 20260502221518 | 56 | 316 | 2.0 | 6.0 | 0.00 | 0.00 | 0.00 | 45 | 1017.8 |
| 20260502220018 | 55 | 309 | 2.0 | 5.0 | 0.00 | 0.00 | 0.00 | 45 | 1017.9 |
| 20260502214524 | 55 | 292 | 4.0 | 9.0 | 0.00 | 0.00 | 0.00 | 43 | 1018.0 |
| 20260502213016 | 55 | 292 | 3.0 | 8.0 | 0.00 | 0.00 | 0.00 | 44 | 1018.1 |
| 20260502211524 | 55 | 342 | 2.0 | 6.0 | 0.00 | 0.00 | 0.00 | 44 | 1018.2 |
| 20260502210025 | 55 | 338 | 1.0 | 6.0 | 0.00 | 0.00 | 0.00 | 45 | 1018.3 |
| 20260502204510 | 54 | 306 | 0.0 | 4.0 | 0.00 | 0.00 | 0.00 | 49 | 1018.4 |
| 20260502203008 | 54 | 167 | 2.0 | 5.0 | 0.00 | 0.00 | 0.00 | 46 | 1018.5 |
| 20260502201511 | 55 | 292 | 2.0 | 10.0 | 0.00 | 0.00 | 0.00 | 44 | 1018.9 |
| 20260502200005 | 55 | 87 | 2.0 | 7.0 | 0.00 | 0.00 | 0.00 | 48 | 1019.0 |
| 20260502194501 | 53 | 315 | 2.0 | 6.0 | 0.00 | 0.00 | 0.00 | 47 | 1019.1 |
| 20260502193113 | 54 | 315 | 2.0 | 5.0 | 0.00 | 0.00 | 0.00 | 50 | 1019.4 |
| 20260502191556 | 53 | 322 | 2.0 | 5.0 | 0.00 | 0.00 | 0.00 | 54 | 1019.6 |
| 20260502190056 | 51 | 307 | 3.0 | 8.0 | 0.00 | 0.00 | 0.00 | 54 | 1019.8 |
| 20260502184554 | 52 | 295 | 1.0 | 6.0 | 0.00 | 0.00 | 0.00 | 48 | 1019.9 |
| 20260502183057 | 53 | 28 | 3.0 | 9.0 | 0.00 | 0.00 | 0.00 | 47 | 1019.9 |
| 20260502181552 | 52 | 35 | 4.0 | 9.0 | 0.00 | 0.00 | 0.00 | 49 | 1020.1 |
| 20260502163042 | 50 | 341 | 2.0 | 10.0 | 0.00 | 0.00 | 0.00 | 55 | 1021.0 |
| 20260502161537 | 50 | 326 | 1.0 | 8.0 | 0.00 | 0.00 | 0.00 | 54 | 1021.2 |
| 20260502151527 | 48 | 336 | 3.0 | 9.0 | 0.00 | 0.00 | 0.00 | 52 | 1021.4 |
| 20260502123041 | 35 | 82 | 0.0 | 1.0 | 0.00 | 0.00 | 0.00 | 96 | 1021.0 |
| 20260502121534 | 33 | 82 | 0.0 | 0.0 | 0.00 | 0.00 | 0.00 | 97 | 1021.1 |
| 20260502114544 | 30 | 82 | 0.0 | 0.0 | 0.00 | 0.00 | 0.00 | 96 | 1020.6 |
| 20260502113031 | 30 | 82 | 0.0 | 0.0 | 0.00 | 0.00 | 0.00 | 95 | 1020.4 |
| 20260502111528 | 29 | 82 | 0.0 | 0.0 | 0.00 | 0.00 | 0.00 | 95 | 1020.4 |
| 20260502110026 | 29 | 82 | 0.0 | 0.0 | 0.00 | 0.00 | 0.00 | 94 | 1020.5 |
| 20260502104526 | 29 | 82 | 0.0 | 0.0 | 0.00 | 0.00 | 0.00 | 94 | 1020.4 |
| 20260502103022 | 30 | 82 | 0.0 | 0.0 | 0.00 | 0.00 | 0.00 | 94 | 1020.3 |
| 20260502101522 | 30 | 82 | 0.0 | 0.0 | 0.00 | 0.00 | 0.00 | 94 | 1020.3 |
| 20260502091519 | 30 | 82 | 0.0 | 0.0 | 0.00 | 0.00 | 0.00 | 93 | 1020.3 |
| 20260502071510 | 32 | 82 | 0.0 | 0.0 | 0.00 | 0.00 | 0.00 | 90 | 1020.3 |
| 20260502070009 | 32 | 82 | 0.0 | 0.0 | 0.00 | 0.00 | 0.00 | 89 | 1020.2 |
| 20260502064506 | 32 | 82 | 0.0 | 0.0 | 0.00 | 0.00 | 0.00 | 89 | 1020.4 |
| 20260502063004 | 33 | 82 | 0.0 | 0.0 | 0.00 | 0.00 | 0.00 | 89 | 1020.5 |
| 20260502061502 | 33 | 82 | 0.0 | 0.0 | 0.00 | 0.00 | 0.00 | 88 | 1020.7 |
| 20260502060001 | 33 | 82 | 0.0 | 0.0 | 0.00 | 0.00 | 0.00 | 88 | 1020.7 |
| 20260502054559 | 33 | 82 | 0.0 | 0.0 | 0.00 | 0.00 | 0.00 | 87 | 1020.6 |
| 20260502053101 | 34 | 82 | 0.0 | 0.0 | 0.00 | 0.00 | 0.00 | 86 | 1020.6 |
| 20260502051554 | 34 | 82 | 0.0 | 0.0 | 0.00 | 0.00 | 0.00 | 85 | 1020.6 |
| 20260502050053 | 35 | 82 | 0.0 | 0.0 | 0.00 | 0.03 | 0.00 | 84 | 1020.6 |
| 20260502044556 | 35 | 82 | 0.0 | 0.0 | 0.00 | 0.03 | 0.00 | 82 | 1020.8 |
| 20260502043117 | 36 | 82 | 0.0 | 0.0 | 0.00 | 0.03 | 0.00 | 81 | 1020.7 |
| 20260502041556 | 37 | 82 | 0.0 | 0.0 | 0.00 | 0.03 | 0.00 | 80 | 1020.6 |
| 20260502040044 | 37 | 82 | 0.0 | 0.0 | 0.00 | 0.03 | 0.00 | 79 | 1020.6 |
| 20260502034541 | 37 | 82 | 0.0 | 0.0 | 0.00 | 0.03 | 0.00 | 78 | 1020.5 |
| 20260502033039 | 38 | 82 | 0.0 | 0.0 | 0.00 | 0.03 | 0.00 | 78 | 1020.4 |
| 20260502031538 | 38 | 82 | 0.0 | 2.0 | 0.00 | 0.03 | 0.00 | 77 | 1020.3 |
| 20260502030044 | 38 | 82 | 1.0 | 3.0 | 0.00 | 0.05 | 0.00 | 77 | 1020.3 |
| 20260502024534 | 39 | 88 | 2.0 | 4.0 | 0.00 | 0.05 | 0.00 | 76 | 1020.2 |
| 20260502023033 | 39 | 81 | 0.0 | 6.0 | 0.00 | 0.05 | 0.00 | 75 | 1020.1 |
| 20260502021531 | 40 | 80 | 0.0 | 5.0 | 0.00 | 0.05 | 0.00 | 74 | 1019.8 |
| 20260502020034 | 40 | 86 | 2.0 | 6.0 | 0.00 | 0.12 | 0.00 | 75 | 1019.7 |
| 20260502014528 | 41 | 67 | 1.0 | 7.0 | 0.00 | 0.12 | 0.00 | 76 | 1019.3 |
| 20260502013027 | 42 | 81 | 0.0 | 8.0 | 0.00 | 0.12 | 0.00 | 76 | 1019.0 |
| 20260502011524 | 43 | 78 | 3.0 | 9.0 | 0.00 | 0.12 | 0.00 | 75 | 1018.9 |
| 20260502010028 | 44 | 78 | 1.0 | 6.0 | 0.00 | 0.21 | 0.00 | 76 | 1018.5 |